| time (UTC) | temp F | wind direction | speed MPH | gust MPH | rain 1hr in | rain 24hr in | rain mn in | humidity % | barometer mb |
| 20260831021520 | 65 | 0.0 | 0.0 | 0.00 | 0.02 | 0.02 | 88 | 1019.1 | |
| 20260831020520 | 65 | 0.0 | 0.0 | 0.00 | 0.02 | 0.02 | 87 | 1019.1 | |
| 20260831015520 | 65 | 0.0 | 0.0 | 0.00 | 0.02 | 0.02 | 87 | 1019.2 | |
| 20260831014520 | 65 | 0.0 | 0.0 | 0.00 | 0.02 | 0.02 | 87 | 1019.4 | |
| 20260831013520 | 65 | 0.0 | 0.0 | 0.00 | 0.02 | 0.02 | 87 | 1019.3 | |
| 20260831012520 | 65 | 0.0 | 0.0 | 0.00 | 0.02 | 0.02 | 86 | 1019.2 | |
| 20260831011520 | 66 | 0.0 | 0.0 | 0.00 | 0.02 | 0.02 | 86 | 1019.2 | |
| 20260831010540 | 66 | 0.0 | 0.0 | 0.00 | 0.02 | 0.02 | 86 | 1019.1 | |
| 20260831005520 | 66 | 0.0 | 0.0 | 0.00 | 0.02 | 0.02 | 86 | 1019.0 | |
| 20260831004620 | 67 | 0.0 | 0.0 | 0.00 | 0.02 | 0.02 | 86 | 1018.8 | |
| 20260831003520 | 67 | 0.0 | 0.0 | 0.00 | 0.02 | 0.02 | 85 | 1018.6 | |
| 20260831002540 | 67 | 0.0 | 0.0 | 0.00 | 0.02 | 0.02 | 85 | 1018.4 | |
| 20260831001520 | 68 | 0.0 | 0.0 | 0.00 | 0.02 | 0.02 | 85 | 1018.3 | |
| 20260831000540 | 68 | 0.0 | 0.0 | 0.00 | 0.02 | 0.02 | 85 | 1018.2 | |
| 20260830235520 | 69 | 0.0 | 0.0 | 0.00 | 0.02 | 0.02 | 85 | 1018.1 | |
| 20260830234520 | 69 | 0.0 | 0.0 | 0.00 | 0.02 | 0.02 | 85 | 1018.0 | |
| 20260830233520 | 69 | 0.0 | 0.0 | 0.00 | 0.02 | 0.02 | 86 | 1018.0 | |
| 20260830232540 | 69 | 0.0 | 0.0 | 0.00 | 0.02 | 0.02 | 86 | 1017.8 | |
| 20260830231520 | 70 | 0.0 | 0.0 | 0.00 | 0.02 | 0.02 | 86 | 1018.0 | |
| 20260830230520 | 70 | 0.0 | 0.0 | 0.00 | 0.02 | 0.02 | 86 | 1018.1 | |
| 20260830225540 | 70 | 0.0 | 0.0 | 0.00 | 0.02 | 0.02 | 86 | 1018.2 | |
| 20260830224520 | 70 | 0.0 | 0.0 | 0.00 | 0.02 | 0.02 | 86 | 1018.2 | |
| 20260830223539 | 70 | 0.0 | 0.0 | 0.00 | 0.02 | 0.02 | 85 | 1018.2 | |
| 20260830222520 | 70 | 0.0 | 0.0 | 0.00 | 0.02 | 0.02 | 85 | 1018.2 | |
| 20260830221520 | 70 | 0.0 | 0.0 | 0.00 | 0.02 | 0.02 | 85 | 1018.2 | |
| 20260830220520 | 70 | 0.0 | 2.0 | 0.00 | 0.02 | 0.02 | 86 | 1018.2 | |
| 20260830215540 | 71 | 0.0 | 3.0 | 0.00 | 0.02 | 0.02 | 86 | 1018.0 | |
| 20260830214520 | 71 | 0.0 | 1.0 | 0.00 | 0.02 | 0.02 | 87 | 1018.0 | |
| 20260830213520 | 71 | 0.0 | 0.0 | 0.00 | 0.02 | 0.02 | 88 | 1018.0 | |
| 20260830212520 | 71 | 0.0 | 0.0 | 0.00 | 0.02 | 0.02 | 89 | 1018.0 | |
| 20260830211520 | 71 | 0.0 | 0.0 | 0.00 | 0.02 | 0.02 | 89 | 1017.9 | |
| 20260830210520 | 71 | 0.0 | 0.0 | 0.00 | 0.02 | 0.02 | 89 | 1018.0 | |
| 20260830205600 | 71 | 0.0 | 0.0 | 0.00 | 0.02 | 0.02 | 89 | 1018.1 | |
| 20260830204520 | 71 | 0.0 | 0.0 | 0.00 | 0.02 | 0.02 | 89 | 1018.2 | |
| 20260830203520 | 71 | 0.0 | 0.0 | 0.00 | 0.02 | 0.02 | 90 | 1018.2 | |
| 20260830202520 | 71 | 0.0 | 0.0 | 0.00 | 0.02 | 0.02 | 90 | 1018.2 | |
| 20260830201519 | 71 | 0.0 | 0.0 | 0.00 | 0.02 | 0.02 | 90 | 1018.2 | |
| 20260830200520 | 70 | 0.0 | 1.0 | 0.00 | 0.02 | 0.02 | 91 | 1018.0 | |
| 20260830195540 | 70 | 0.0 | 3.0 | 0.00 | 0.02 | 0.02 | 91 | 1018.2 | |
| 20260830194520 | 70 | 0.0 | 0.0 | 0.00 | 0.02 | 0.02 | 91 | 1018.2 | |
| 20260830193519 | 70 | 0.0 | 2.0 | 0.00 | 0.02 | 0.02 | 92 | 1018.2 | |
| 20260830192520 | 70 | 0.0 | 0.0 | 0.00 | 0.02 | 0.02 | 92 | 1018.4 | |
| 20260830191520 | 70 | 0.0 | 2.0 | 0.00 | 0.02 | 0.02 | 91 | 1018.5 | |
| 20260830190520 | 69 | 0.0 | 0.0 | 0.00 | 0.02 | 0.02 | 91 | 1018.6 | |
| 20260830185520 | 69 | 0.0 | 0.0 | 0.00 | 0.02 | 0.02 | 91 | 1018.7 | |
| 20260830184520 | 69 | 0.0 | 0.0 | 0.00 | 0.02 | 0.02 | 91 | 1018.8 | |
| 20260830183520 | 69 | 0.0 | 0.0 | 0.00 | 0.02 | 0.02 | 91 | 1018.7 | |
| 20260830182520 | 69 | 0.0 | 0.0 | 0.00 | 0.02 | 0.02 | 90 | 1018.6 | |
| 20260830181520 | 69 | 0.0 | 1.0 | 0.00 | 0.02 | 0.02 | 90 | 1018.8 | |
| 20260830180521 | 69 | 0.0 | 0.0 | 0.01 | 0.02 | 0.02 | 90 | 1019.0 | |
| 20260830175540 | 69 | 0.0 | 0.0 | 0.01 | 0.02 | 0.02 | 90 | 1018.9 | |
| 20260830174520 | 69 | 0.0 | 0.0 | 0.01 | 0.02 | 0.02 | 90 | 1018.8 | |
| 20260830173519 | 69 | 0.0 | 0.0 | 0.01 | 0.02 | 0.02 | 89 | 1018.9 | |
| 20260830172519 | 69 | 0.0 | 0.0 | 0.01 | 0.02 | 0.02 | 89 | 1019.0 | |
| 20260830171520 | 69 | 0.0 | 0.0 | 0.02 | 0.02 | 0.02 | 88 | 1019.0 | |
| 20260830170520 | 69 | 0.0 | 0.0 | 0.01 | 0.01 | 0.01 | 88 | 1019.1 | |
| 20260830165600 | 69 | 0.0 | 0.0 | 0.01 | 0.01 | 0.01 | 87 | 1019.1 | |
| 20260830164540 | 69 | 0.0 | 0.0 | 0.01 | 0.01 | 0.01 | 87 | 1019.0 | |
| 20260830163520 | 69 | 0.0 | 0.0 | 0.01 | 0.01 | 0.01 | 87 | 1019.1 | |
| 20260830162520 | 70 | 0.0 | 0.0 | 0.01 | 0.01 | 0.01 | 87 | 1019.1 | |
| 20260830161520 | 70 | 0.0 | 0.0 | 0.00 | 0.00 | 0.00 | 89 | 1019.0 | |
| 20260830160520 | 70 | 0.0 | 0.0 | 0.00 | 0.00 | 0.00 | 89 | 1019.1 | |
| 20260830155519 | 69 | 0.0 | 0.0 | 0.00 | 0.00 | 0.00 | 89 | 1019.1 | |
| 20260830154540 | 69 | 0.0 | 0.0 | 0.00 | 0.00 | 0.00 | 89 | 1019.2 | |
| 20260830153519 | 69 | 0.0 | 0.0 | 0.00 | 0.00 | 0.00 | 89 | 1019.2 | |
| 20260830152519 | 69 | 0.0 | 0.0 | 0.00 | 0.00 | 0.00 | 88 | 1018.8 | |
| 20260830151520 | 69 | 0.0 | 0.0 | 0.00 | 0.00 | 0.00 | 88 | 1018.7 | |
| 20260830150520 | 69 | 0.0 | 0.0 | 0.00 | 0.00 | 0.00 | 88 | 1018.8 | |
| 20260830145520 | 69 | 0.0 | 0.0 | 0.00 | 0.00 | 0.00 | 88 | 1018.7 | |
| 20260830144520 | 69 | 0.0 | 0.0 | 0.00 | 0.00 | 0.00 | 88 | 1018.9 | |
| 20260830143519 | 69 | 0.0 | 0.0 | 0.00 | 0.00 | 0.00 | 88 | 1018.9 | |
| 20260830142520 | 69 | 0.0 | 0.0 | 0.00 | 0.00 | 0.00 | 89 | 1018.7 | |
| 20260830141520 | 69 | 0.0 | 0.0 | 0.00 | 0.00 | 0.00 | 89 | 1018.6 | |
| 20260830140520 | 69 | 0.0 | 0.0 | 0.00 | 0.00 | 0.00 | 89 | 1018.6 | |
| 20260830135519 | 68 | 0.0 | 0.0 | 0.00 | 0.00 | 0.00 | 90 | 1018.4 | |
| 20260830134520 | 68 | 0.0 | 0.0 | 0.00 | 0.00 | 0.00 | 90 | 1018.5 | |
| 20260830133520 | 68 | 0.0 | 0.0 | 0.00 | 0.00 | 0.00 | 90 | 1018.4 | |
| 20260830132519 | 67 | 0.0 | 0.0 | 0.00 | 0.00 | 0.00 | 90 | 1018.4 | |
| 20260830131519 | 67 | 0.0 | 0.0 | 0.00 | 0.00 | 0.00 | 90 | 1018.4 | |
| 20260830130519 | 67 | 0.0 | 0.0 | 0.00 | 0.00 | 0.00 | 90 | 1018.3 | |
| 20260830125519 | 66 | 0.0 | 0.0 | 0.00 | 0.00 | 0.00 | 90 | 1018.4 | |
| 20260830124540 | 66 | 0.0 | 0.0 | 0.00 | 0.00 | 0.00 | 90 | 1018.4 | |
| 20260830123519 | 66 | 0.0 | 0.0 | 0.00 | 0.00 | 0.00 | 90 | 1018.5 | |
| 20260830122519 | 65 | 0.0 | 0.0 | 0.00 | 0.00 | 0.00 | 89 | 1018.4 | |
| 20260830121519 | 65 | 0.0 | 0.0 | 0.00 | 0.00 | 0.00 | 89 | 1018.5 | |
| 20260830120519 | 65 | 0.0 | 0.0 | 0.00 | 0.00 | 0.00 | 89 | 1018.4 | |
| 20260830115539 | 64 | 0.0 | 0.0 | 0.00 | 0.00 | 0.00 | 89 | 1018.4 | |
| 20260830114520 | 64 | 0.0 | 0.0 | 0.00 | 0.00 | 0.00 | 89 | 1018.6 | |
| 20260830113520 | 64 | 0.0 | 0.0 | 0.00 | 0.00 | 0.00 | 88 | 1018.6 | |
| 20260830112519 | 64 | 0.0 | 0.0 | 0.00 | 0.00 | 0.00 | 88 | 1018.6 | |
| 20260830111520 | 64 | 0.0 | 0.0 | 0.00 | 0.00 | 0.00 | 88 | 1018.6 | |
| 20260830110520 | 64 | 0.0 | 0.0 | 0.00 | 0.00 | 0.00 | 88 | 1018.6 | |
| 20260830105519 | 64 | 0.0 | 0.0 | 0.00 | 0.00 | 0.00 | 88 | 1018.6 | |
| 20260830104519 | 64 | 0.0 | 0.0 | 0.00 | 0.00 | 0.00 | 88 | 1018.5 | |
| 20260830103519 | 64 | 0.0 | 0.0 | 0.00 | 0.00 | 0.00 | 88 | 1018.6 | |
| 20260830102519 | 64 | 0.0 | 0.0 | 0.00 | 0.00 | 0.00 | 88 | 1018.6 | |
| 20260830101519 | 64 | 0.0 | 0.0 | 0.00 | 0.00 | 0.00 | 88 | 1018.6 | |
| 20260830100520 | 64 | 0.0 | 0.0 | 0.00 | 0.00 | 0.00 | 88 | 1018.7 | |
| 20260830095519 | 64 | 0.0 | 0.0 | 0.00 | 0.00 | 0.00 | 88 | 1018.9 | |
| 20260830094519 | 64 | 0.0 | 0.0 | 0.00 | 0.00 | 0.00 | 88 | 1018.8 | |
| 20260830093519 | 64 | 0.0 | 0.0 | 0.00 | 0.00 | 0.00 | 88 | 1018.8 | |
| 20260830092540 | 64 | 0.0 | 0.0 | 0.00 | 0.00 | 0.00 | 88 | 1018.7 | |
| 20260830091519 | 64 | 0.0 | 0.0 | 0.00 | 0.00 | 0.00 | 88 | 1018.7 | |
| 20260830090519 | 64 | 0.0 | 0.0 | 0.00 | 0.00 | 0.00 | 88 | 1018.7 | |
| 20260830085519 | 64 | 0.0 | 0.0 | 0.00 | 0.00 | 0.00 | 88 | 1018.8 | |
| 20260830084519 | 64 | 0.0 | 0.0 | 0.00 | 0.00 | 0.00 | 88 | 1018.9 | |
| 20260830083519 | 64 | 0.0 | 0.0 | 0.00 | 0.00 | 0.00 | 89 | 1019.0 | |
| 20260830082519 | 64 | 0.0 | 0.0 | 0.00 | 0.00 | 0.00 | 89 | 1019.0 | |
| 20260830081540 | 64 | 0.0 | 0.0 | 0.00 | 0.00 | 0.00 | 89 | 1019.2 | |
| 20260830080539 | 64 | 0.0 | 0.0 | 0.00 | 0.00 | 0.00 | 89 | 1019.2 | |
| 20260830075519 | 64 | 0.0 | 0.0 | 0.00 | 0.00 | 0.00 | 89 | 1019.2 | |
| 20260830074519 | 64 | 0.0 | 0.0 | 0.00 | 0.00 | 0.00 | 89 | 1019.2 | |
| 20260830073519 | 64 | 0.0 | 0.0 | 0.00 | 0.00 | 0.00 | 89 | 1019.2 | |
| 20260830072519 | 64 | 0.0 | 0.0 | 0.00 | 0.00 | 0.00 | 89 | 1019.2 | |
| 20260830071540 | 64 | 0.0 | 0.0 | 0.00 | 0.00 | 0.00 | 89 | 1019.1 | |
| 20260830070519 | 64 | 0.0 | 0.0 | 0.00 | 0.00 | 0.00 | 89 | 1019.1 | |
| 20260830065519 | 64 | 0.0 | 0.0 | 0.00 | 0.00 | 0.00 | 89 | 1019.1 | |
| 20260830064519 | 64 | 0.0 | 0.0 | 0.00 | 0.00 | 0.00 | 89 | 1019.1 | |
| 20260830063539 | 64 | 0.0 | 0.0 | 0.00 | 0.00 | 0.00 | 88 | 1019.3 | |
| 20260830062519 | 64 | 0.0 | 0.0 | 0.00 | 0.00 | 0.00 | 87 | 1019.4 | |
| 20260830061519 | 64 | 0.0 | 0.0 | 0.00 | 0.00 | 0.00 | 87 | 1019.6 | |
| 20260830060519 | 64 | 0.0 | 0.0 | 0.00 | 0.00 | 0.00 | 86 | 1019.7 | |
| 20260830055519 | 64 | 0.0 | 0.0 | 0.00 | 0.00 | 0.00 | 86 | 1019.7 | |
| 20260830054519 | 64 | 0.0 | 0.0 | 0.00 | 0.00 | 0.00 | 85 | 1019.6 | |
| 20260830053539 | 64 | 0.0 | 0.0 | 0.00 | 0.00 | 0.00 | 84 | 1019.4 | |
| 20260830052519 | 64 | 0.0 | 0.0 | 0.00 | 0.00 | 0.00 | 84 | 1019.4 | |
| 20260830051559 | 64 | 0.0 | 0.0 | 0.00 | 0.00 | 0.00 | 84 | 1019.5 | |
| 20260830050539 | 64 | 0.0 | 0.0 | 0.00 | 0.00 | 0.00 | 83 | 1019.6 | |
| 20260830044520 | 64 | 0.0 | 0.0 | 0.00 | 0.00 | 0.00 | 83 | 1019.5 | |
| 20260830043519 | 64 | 0.0 | 0.0 | 0.00 | 0.00 | 0.00 | 82 | 1019.4 | |
| 20260830042519 | 64 | 0.0 | 0.0 | 0.00 | 0.00 | 0.00 | 82 | 1019.4 | |
| 20260830041601 | 64 | 0.0 | 0.0 | 0.00 | 0.00 | 0.00 | 81 | 1019.4 | |
| 20260830040519 | 65 | 0.0 | 0.0 | 0.00 | 0.00 | 0.00 | 82 | 1019.5 | |
| 20260830035540 | 65 | 0.0 | 0.0 | 0.00 | 0.00 | 0.00 | 80 | 1019.5 | |
| 20260830034520 | 65 | 0.0 | 0.0 | 0.00 | 0.00 | 0.00 | 80 | 1019.6 | |
| 20260830033520 | 65 | 0.0 | 0.0 | 0.00 | 0.00 | 0.00 | 79 | 1019.5 | |
| 20260830032520 | 65 | 0.0 | 0.0 | 0.00 | 0.00 | 0.00 | 79 | 1019.4 | |
| 20260830031520 | 65 | 0.0 | 0.0 | 0.00 | 0.00 | 0.00 | 79 | 1019.4 | |
| 20260830030520 | 66 | 0.0 | 0.0 | 0.00 | 0.00 | 0.00 | 78 | 1019.4 | |
| 20260830025520 | 66 | 0.0 | 0.0 | 0.00 | 0.00 | 0.00 | 78 | 1019.5 | |
| 20260830024520 | 66 | 0.0 | 0.0 | 0.00 | 0.00 | 0.00 | 78 | 1019.5 | |
| 20260830023520 | 66 | 0.0 | 0.0 | 0.00 | 0.00 | 0.00 | 77 | 1019.6 | |
| 20260830022540 | 67 | 0.0 | 0.0 | 0.00 | 0.00 | 0.00 | 77 | 1019.6 |